Fullerton, CA

1:28 AM PST on November 18, 2017 (GMT -0800)
Fullerton Municipal

Weather History for KFUL - November, 2013

Change the Weather History Date:

Sunday, November 17, 2013

  Actual Average Record
Temperature  
Mean Temperature 62 °F 60 °F  
Max Temperature 71 °F 72 °F 90 °F (1956)
Min Temperature 53 °F 49 °F 41 °F (2015)
Degree Days  
Heating Degree Days 3 5  
Month to date heating degree days 10 57  
Since 1 July heating degree days 31 81  
Cooling Degree Days 0 1  
Month to date cooling degree days 37 19  
Year to date cooling degree days 1896 1250  
Growing Degree Days 13 (Base 50)    
Moisture  
Dew Point 50 °F    
Average Humidity 61    
Maximum Humidity 77    
Minimum Humidity 44    
Precipitation  
Precipitation 0.00 in 0.03 in 0.12 in (2012)
Month to date precipitation 0.00 0.66  
Year to date precipitation 2.66 11.39  
Since 1 July precipitation 0.13  
Snow  
Snow 0.00 in - - ()
Month to date snowfall 0.0  
Year to date snowfall 0.0  
Snow Depth 0.00 in    
Sea Level Pressure  
Sea Level Pressure 30.01 in    
Wind  
Wind Speed 1 mph (SW)    
Max Wind Speed 10 mph    
Max Gust Speed 14 mph    
Visibility 10 miles    
Events      
T = Trace of Precipitation, MM = Missing Value Source: NWS Daily Summary

Daily Weather History Graph

Daily Weather History Graph

Search for Another Location

Airport or City:

Trip Planner

Search our weather history database for the weather conditions in past years. The results will help you decide how hot, cold, wet, or windy it might be!

Date:

Astronomy

Nov. 17, 2013 Rise Set
Actual Time 6:26 AM PST 4:47 PM PST
Civil Twilight 5:59 AM PST 5:13 PM PST
Nautical Twilight 5:29 AM PST 5:44 PM PST
Astronomical Twilight 4:59 AM PST 6:13 PM PST
Moon 5:07 PM PST (11/17) 6:25 AM PST (11/17)
Length of Visible Light 11h 14m
Length of Day
10h 20m
Full, 100% of the Moon is Illuminated
Nov 17
Full
Nov 25
Last Quarter
Dec 2
New
Dec 9
First Quarter
Dec 17
Full

Hourly Weather History & Observations

Time (PST) Temp. Dew Point Humidity Pressure Visibility Wind Dir Wind Speed Gust Speed Precip Events Conditions
12:53 AM 57.0 °F 48.9 °F 74% 29.94 in 10.0 mi Calm Calm - N/A   Partly Cloudy
1:53 AM 59.0 °F 48.9 °F 69% 29.94 in 10.0 mi Calm Calm - N/A   Overcast
2:53 AM 59.0 °F 50.0 °F 72% 29.94 in 10.0 mi Calm Calm - N/A   Overcast
3:53 AM 59.0 °F 50.0 °F 72% 29.94 in 10.0 mi Calm Calm - N/A   Overcast
4:53 AM 59.0 °F 50.0 °F 72% 29.95 in 10.0 mi Calm Calm - N/A   Overcast
5:53 AM 55.0 °F 48.9 °F 80% 29.96 in 10.0 mi Calm Calm - N/A   Clear
6:53 AM 55.0 °F 48.9 °F 80% 29.98 in 10.0 mi Calm Calm - N/A   Clear
7:53 AM 59.0 °F 50.0 °F 72% 30.01 in 10.0 mi Calm Calm - N/A   Clear
8:53 AM 63.0 °F 50.0 °F 63% 30.03 in 10.0 mi Calm Calm - N/A   Clear
9:53 AM 64.9 °F 48.9 °F 56% 30.05 in 10.0 mi South 4.6 mph - N/A   Partly Cloudy
10:53 AM 66.0 °F 48.0 °F 52% 30.04 in 10.0 mi Calm Calm - N/A   Partly Cloudy
11:53 AM 69.1 °F 48.0 °F 47% 30.02 in 10.0 mi West 4.6 mph - N/A   Scattered Clouds
12:53 PM 71.1 °F 48.9 °F 45% 30.00 in 10.0 mi Variable 4.6 mph - N/A   Mostly Cloudy
1:53 PM 70.0 °F 51.1 °F 51% 29.99 in 10.0 mi Variable 3.5 mph - N/A   Clear
2:53 PM 69.1 °F 51.1 °F 53% 29.99 in 10.0 mi Variable 5.8 mph - N/A   Partly Cloudy
3:53 PM 68.0 °F 51.1 °F 55% 29.99 in 10.0 mi Variable 5.8 mph - N/A   Clear
4:53 PM 64.9 °F 50.0 °F 58% 30.00 in 10.0 mi SSW 5.8 mph - N/A   Clear
5:53 PM 64.0 °F 51.1 °F 63% 30.02 in 10.0 mi Calm Calm - N/A   Clear
6:53 PM 62.1 °F 51.1 °F 67% 30.04 in 10.0 mi Calm Calm - N/A   Clear
7:53 PM 60.1 °F 52.0 °F 75% 30.05 in 10.0 mi Calm Calm - N/A   Clear
8:53 PM 59.0 °F 51.1 °F 75% 30.06 in 10.0 mi Calm Calm - N/A   Clear
9:53 PM 57.9 °F 51.1 °F 78% 30.08 in 10.0 mi Calm Calm - N/A   Clear
10:53 PM 57.0 °F 51.1 °F 81% 30.08 in 10.0 mi Calm Calm - N/A   Clear
11:53 PM 55.9 °F 50.0 °F 80% 30.09 in 10.0 mi Calm Calm - N/A   Clear